Location: Newark
(44.6028°N, 124.0883°W)
Time: 03:10:39
(UTC+00:00)

Vanguard 1 - Pass Details

Date: 30 October 2019
Orbit: 652 x 3831 km, 34.2° (Epoch: 16 November)

Event Time Altitude Azimuth Distance (km) Brightness Sun altitude
Rises 23:42:17 0° 214° (SSW) 2,975 14.0 12.8°
Reaches altitude 10° 23:45:08 10° 192° (SSW) 2,175 12.7 12.4°
Maximum altitude 23:48:17 17° 151° (SSE) 1,940 11.7 11.9°
Drops below altitude 10° 23:52:09 10° 111° (ESE) 2,757 12.1 11.3°
Sets 23:56:27 0° 94° (E) 4,209 12.8 10.7°
